Regional Weather Roundup
Issued by NWS Wilmington, NC

Home | Current Version | Previous Version | Text Only | Print | Product List | Glossary On
Versions: 1 2 3 4 5 6 7 8 9 10 11 12 13 14 15 16 17 18 19 20 21 22 23 24 25 26 27 28
000
ASUS42 KILM 220513
RWRILM
RWRILM
REGIONAL HOURLY WEATHER ROUNDUP
NATIONAL WEATHER SERVICE WILMINGTON NC
100 AM EDT SAT JUL 22 2017

NOTE: "FAIR" INDICATES FEW OR NO CLOUDS BELOW 12,000 FEET WITH NO
SIGNIFICANT WEATHER AND/OR OBSTRUCTIONS TO VISIBILITY.

...............WFO WILMINGTON COUNTY WARNING AREA...............

......COASTAL NC AND SC COUNTIES......

CITY           SKY/WX    TMP DP  RH WIND       PRES   REMARKS
WILMINGTON     CLEAR     79  76  90 SW9       30.01S
N MYRTLE BEACH CLEAR     79  77  94 SW7       30.01S
MYRTLE BEACH   CLEAR     79  76  90 SW7       30.03S

......INLAND NC AND SC COUNTIES.......

CITY           SKY/WX    TMP DP  RH WIND       PRES   REMARKS
LUMBERTON      CLEAR     79  75  87 S3        30.00S
ELIZABETHTOWN  NOT AVBL
WHITEVILLE     CLEAR     78  74  88 CALM      30.01S
FLORENCE       CLEAR     79  75  87 SW7       30.01S
DARLINGTON     CLEAR     79  75  87 S6        30.01S
KINGSTREE      FAIR      73  72  94 CALM      30.02R
HARTSVILLE     FAIR      73  72  94 CALM      30.00F
BENNETTSVILLE  FAIR      79  77  94 CALM      30.00S
CONWAY         FAIR      75  73  94 S3        30.02S
GEORGETOWN     FAIR      73  73 100 SW3       30.03S
MARION         FAIR      77  72  83 SW6       30.01S

....................REST OF NORTH CAROLINA......................

.........EASTERN NC.........

CITY           SKY/WX    TMP DP  RH WIND       PRES   REMARKS
CAPE HATTERAS  CLOUDY    78  74  87 SW12      30.00S
JACKSONVILLE   CLEAR     77  74  90 S8        30.01F
MOREHEAD CITY  CLEAR     82  79  90 SW10      30.01S HX  92
KENANSVILLE    CLOUDY    77  73  88 S3        30.00S
NEW BERN       NOT AVBL
ELIZABETH CITY PTCLDY    80  77  90 SW9       29.96S

.........CENTRAL NC.........

CITY           SKY/WX    TMP DP  RH WIND       PRES   REMARKS
RALEIGH DURHAM CLOUDY    79  73  82 SW6       29.99S
ROCKY MOUNT    CLOUDY    76  73  91 S5        29.98S
ROANOKE RAPIDS NOT AVBL
FAYETTEVILLE   PTCLDY    83  76  79 SW6       29.99S HX  91
HOFFMAN        CLOUDY    76  74  92 S3        29.99F

.........WESTERN NC.........

CITY           SKY/WX    TMP DP  RH WIND       PRES   REMARKS
CHARLOTTE      MOCLDY    82  70  66 SW8       30.01F
GREENSBORO     MOCLDY    80  74  81 SW8       30.00F
HICKORY        NOT AVBL
BOONE          NOT AVBL
ASHEVILLE      NOT AVBL

.....................REST OF SOUTH CAROLINA.....................

.........EASTERN SC.........

CITY           SKY/WX    TMP DP  RH WIND       PRES   REMARKS
CHARLESTON     CLEAR     77  75  93 S5        30.03S
BEAUFORT MCAS  CLEAR     81  78  91 S3        30.03S
HILTON HEAD    CLEAR     81  77  89 CALM      30.04S

.........CENTRAL SC.........

CITY           SKY/WX    TMP DP  RH WIND       PRES   REMARKS
COLUMBIA       PTCLDY    79  72  79 W5        30.00F
ORANGEBURG     CLEAR     76  73  91 S5        30.02S
SUMTER SHAW    PTCLDY    79  73  80 S7        29.99S

.........WESTERN SC.........

CITY           SKY/WX    TMP DP  RH WIND       PRES   REMARKS
GREENVILLE     NOT AVBL
ROCK HILL      CLEAR     78  70  76 SW7       30.02F
ANDERSON       CLEAR     80  71  74 SW6       30.02F
CLEMSON        NOT AVBL
GREENWOOD      CLEAR     77  67  71 SW8       30.03F


...................COASTAL AND OFFSHORE REPORTS..................

................LOCAL PIERS AND NC RESERVE................


STATION/POSITION TIME  SKY/WX   TEMP    WIND        PRES    VSBY
                                AIR SEA DIR/SP/G
                 (UTC)          (F)     (DEG/KT/KT) (MB)    (MI)
JOHNY MRCER PIER 0442            81 80  220/ 11/ 13 1015.3F
NC RESRV MASNBRO NOT AVBL
OCEAN CREST PIER NOT AVBL
SPRINGMAID  PIER 0442                               1015.9R


................COASTAL AND OFFSHORE BUOYS................


STATION/POSITION TIME  SKY/WX   TEMP    WIND        PRES    VSBY
                                AIR SEA DIR/SP/G
                 (UTC)          (F)     (DEG/KT/KT) (MB)    (MI)
DIMNDSHOAL 41025 0450            83 84  230/ 19/ 25 1015.7R
WVE H/P(F/S)=  5/ 4 SWL H/P/D(F/S/D)=  2/130/10

CAPE LOOKOUT     0500            81     240/ 11/ 15 1015.9R
ONSLOW BAY 41036 NOT AVBL
ONSLOW BAY 41064 0408            81 81  240/ 14/ 17 1016.4F
ONSLOW BAY 41159 0443               81                N/A
WVE H/P(F/S)=  4/ 8

MASNBO INL 41110 0429               81                N/A
WVE H/P(F/S)=  3/10

WILM HARBR 41108 0500               81                N/A
WVE H/P(F/S)=  4/ 5

27SE WRITB 41037 0408            82 81  210/ 14/ 19 1016.1F
FRYING PAN 41013 0500            83 83  220/ 16/ 17 1016.4
SUNST NRSH 41024 0408            80 79  240/ 10/ 14 1016.3F
CAPRS NRSH 41029 0408            80 84  220/ 14/ 19 1016.7F
EDISTO     41004 0450            83 84  210/ 12/ 16 1016.5S
WVE H/P(F/S)=  3/10 SWL H/P/D(F/S/D)=  2/120/10



..........OFFSHORE BUOYS BEYOND 100 NM OFFSHORE...........
.....IN A TRIANGLE---HAT TO BERMUDA TO BAHAMAS TO HAT.....


STATION/POSITION TIME  SKY/WX   TEMP    WIND        PRES    VSBY
                                AIR SEA DIR/SP/G
                 (UTC)          (F)     (DEG/KT/KT) (MB)    (MI)
150E HAT   41001 0450            82 82  220/ 16/ 19 1017.0F
WVE H/P(F/S)=  5/ 5 SWL H/P/D(F/S/D)=  2/140/10

W BERMUDA  41048 0450            83 83  230/ 12/ 16 1019.8F
WVE H/P(F/S)=  4/10 SWL H/P/D(F/S/D)=  3/120/10

ATLANTIC S 41049 0450            81 84  140/  2/  2 1022.5F
WVE H/P(F/S)=  4/ 8 SWL H/P/D(F/S/D)=  5/100/ 8

E BAHAMAS  41046 0450            82 84   90/ 12/ 16 1020.4F
WVE H/P(F/S)=  5/ 9 SWL H/P/D(F/S/D)=  3/130/ 9

NE BAHAMAS 41047 0450            83 85  140/  8/ 12 1021.5F
WVE H/P(F/S)=  4/ 9 SWL H/P/D(F/S/D)=  3/140/ 9

120E CANVRL41010 0450            84 85  190/ 10/ 12 1018.1F
WVE H/P(F/S)=  3/ 8 SWL H/P/D(F/S/D)=  3/ 70/ 8


END




USA.gov is the U.S. government's official web portal to all federal, state and local government web resources and services.